This is the latest recevied weather packets stored in our database for station/object 9M2RSI-1. If no packets are shown the sender has not sent any weather packets the latest 10 day(s).
| Time | Temp. | Humidity | Pressure | Rain* | Wind** | Luminosity | Snow |
|---|---|---|---|---|---|---|---|
| 1777428312 | 30° C | 74% | 1011.2 hPa | - | - | - | - |
| 1777427412 | 29.44° C | 75% | 1011.2 hPa | - | - | - | - |
| 1777426512 | 28.89° C | 75% | 1011.1 hPa | - | - | - | - |
| 1777425612 | 28.89° C | 75% | 1011.1 hPa | - | - | - | - |
| 1777424711 | 28.33° C | 75% | 1010.9 hPa | - | - | - | - |
| 1777418411 | 27.78° C | 74% | 1009.8 hPa | - | - | - | - |
| 1777417511 | 27.78° C | 73% | 1009.3 hPa | - | - | - | - |
| 1777416611 | 27.78° C | 73% | 1009.4 hPa | - | - | - | - |
| 1777415711 | 27.78° C | 72% | 1009.1 hPa | - | - | - | - |
| 1777414810 | 27.78° C | 72% | 1009 hPa | - | - | - | - |
| 1777413910 | 28.33° C | 72% | 1008.9 hPa | - | - | - | - |
| 1777413010 | 28.33° C | 72% | 1008.9 hPa | - | - | - | - |
| 1777410310 | 28.33° C | 72% | 1008.5 hPa | - | - | - | - |
| 1777409410 | 28.33° C | 72% | 1008.5 hPa | - | - | - | - |
| 1777408510 | 28.33° C | 71% | 1008.4 hPa | - | - | - | - |
| 1777407610 | 28.33° C | 71% | 1008.4 hPa | - | - | - | - |
| 1777406710 | 28.89° C | 72% | 1008.4 hPa | - | - | - | - |
| 1777405810 | 28.89° C | 71% | 1008.4 hPa | - | - | - | - |
| 1777404910 | 28.89° C | 71% | 1008.4 hPa | - | - | - | - |
| 1777404010 | 28.89° C | 70% | 1008.5 hPa | - | - | - | - |
| 1777403109 | 28.89° C | 71% | 1008.6 hPa | - | - | - | - |
| 1777400409 | 28.89° C | 70% | 1008.8 hPa | - | - | - | - |
| 1777399509 | 28.89° C | 70% | 1008.9 hPa | - | - | - | - |
| 1777398609 | 28.89° C | 71% | 1009.2 hPa | - | - | - | - |
| 1777397709 | 28.89° C | 72% | 1009.4 hPa | - | - | - | - |
* Rain since midnight (hover to see other rain measurements)
** Current wind speed in m/s (hover to see current wind gust speed)